Weather in Woomera

Australia     31°12′02″S   136°49′04″E
temp.,
°C
wind,
m/s
gust,
m/s
humid.,
%
clouds,
%
prec.,
mm/h
press.,
hPa
HPBL,
m
24 june, thu
thu2400:30+11nw815635 0.0 1012571
03:30+10wnw916720 0.0 1011559
06:30+9wnw815850 0.0 1012375
09:30+12w913745 0.0 1014660
12:30+16w8105389 0.1 10131600
15:30+16w8103817 0.2 10112046
18:30+13wsw81266100 0.2 1013660
21:30+11wsw813775 0.2 1016506
25 june, fri
fri2500:30+9wsw711845 0.0 1017311
03:30+8wsw59890 0.0 1018224
06:30+7wsw49915 0.0 1020167
09:30+10wsw58672 0.0 1022459
12:30+14sw78426 0.0 10211710
15:30+14sw7938100 0.0 10202294
18:30+13sw583669 0.0 1022745
21:30+10ssw510646 0.0 1024241
26 june, sat
sat2600:30+8sw47765 0.0 1025146
03:30+7ssw47815 0.0 1026115
06:30+7ssw34832 0.0 102741
09:30+10ssw34600 0.0 1029236
12:30+13ssw44445 0.0 10281308
15:30+14ssw55411 0.0 10261470
18:30+11ssw33505 0.0 102825
21:30+10ssw22562 0.0 103015
27 june, sun
sun2700:30+9sse116510 0.0 102910
03:30+8ssw22700 0.0 102910
06:30+7sse11820 0.0 103010
09:30+11ese11610 0.0 1031155
12:30+14ene12470 0.0 10301037
15:30+15e33430 0.0 10281290
18:30+13e33520 0.0 102936
21:30+11ene33554 0.0 103023
28 june, mon
mon2800:30+10ne335470 0.0 102929
03:30+9ne33577 0.0 102830
06:30+8nne44600 0.0 102932
09:30+11nne68480 0.0 1030350
12:30+15nne78380 0.0 10281229
15:30+16nne78320 0.0 10261465
18:30+13nne46390 0.0 102772
21:30+11nne57450 0.0 1027105